DW5479 Weather Reports


Display with metric or nautical units.
time (UTC)temp
F
wind
direction
speed
MPH
gust
MPH
rain 1hr
in
rain 24hr
in
rain mn
in
humidity
%
barometer
mb
20221001212030 86 309 2.0 8.0 0.00 0.00 0.00 28 1013.5
20221001211532 86 141 3.0 10.0 0.00 0.00 0.00 28 1013.6
20221001211029 86 68 5.0 10.0 0.00 0.00 0.00 28 1013.6
20221001210527 86 137 3.0 7.0 0.00 0.00 0.00 28 1013.5
20221001210028 86 53 3.0 10.0 0.00 0.00 0.00 28 1013.7
20221001205527 86 106 5.0 10.0 0.00 0.00 0.00 27 1013.7
20221001205031 86 49 3.0 10.0 0.00 0.00 0.00 28 1013.7
20221001204526 86 61 4.0 9.0 0.00 0.00 0.00 28 1013.7
20221001204024 86 99 4.0 8.0 0.00 0.00 0.00 28 1013.7
20221001203523 86 116 4.0 8.0 0.00 0.00 0.00 28 1013.7
20221001203022 86 108 3.0 7.0 0.00 0.00 0.00 29 1013.8
20221001202521 85 61 2.0 10.0 0.00 0.00 0.00 29 1013.9
20221001202023 86 79 3.0 10.0 0.00 0.00 0.00 29 1013.8
20221001201530 85 57 2.0 10.0 0.00 0.00 0.00 29 1013.9
20221001201020 85 66 5.0 11.0 0.00 0.00 0.00 29 1014.0
20221001200526 85 36 6.0 11.0 0.00 0.00 0.00 28 1014.0
20221001200023 85 89 4.0 9.0 0.00 0.00 0.00 29 1014.0
20221001195519 86 347 3.0 7.0 0.00 0.00 0.00 29 1014.1
20221001195018 85 82 2.0 9.0 0.00 0.00 0.00 29 1014.2
20221001194518 85 55 5.0 9.0 0.00 0.00 0.00 29 1014.3
20221001194017 85 135 2.0 11.0 0.00 0.00 0.00 30 1014.3
20221001193518 86 54 5.0 9.0 0.00 0.00 0.00 29 1014.5
20221001193022 85 337 1.0 6.0 0.00 0.00 0.00 30 1014.5
20221001192514 85 108 1.0 9.0 0.00 0.00 0.00 31 1014.6
20221001192014 85 200 5.0 9.0 0.00 0.00 0.00 31 1014.8
20221001191517 84 96 2.0 12.0 0.00 0.00 0.00 31 1014.9
20221001191013 84 82 4.0 12.0 0.00 0.00 0.00 31 1014.9
20221001190514 84 171 2.0 5.0 0.00 0.00 0.00 32 1014.9
20221001190012 83 98 3.0 9.0 0.00 0.00 0.00 33 1015.0
20221001185511 83 46 3.0 9.0 0.00 0.00 0.00 33 1015.1
20221001185011 84 39 3.0 10.0 0.00 0.00 0.00 33 1015.2
20221001184514 84 23 4.0 10.0 0.00 0.00 0.00 33 1015.3
20221001184010 83 15 1.0 5.0 0.00 0.00 0.00 34 1015.3
20221001183513 83 312 3.0 10.0 0.00 0.00 0.00 33 1015.4
20221001183011 83 67 4.0 10.0 0.00 0.00 0.00 34 1015.5
20221001182507 83 65 5.0 9.0 0.00 0.00 0.00 34 1015.5
20221001182006 83 107 3.0 8.0 0.00 0.00 0.00 35 1015.6
20221001181508 82 80 3.0 8.0 0.00 0.00 0.00 35 1015.7
20221001181006 82 73 2.0 8.0 0.00 0.00 0.00 35 1015.7
20221001180508 82 30 3.0 9.0 0.00 0.00 0.00 35 1015.8
20221001180007 83 27 5.0 9.0 0.00 0.00 0.00 35 1015.9
20221001175506 83 11 4.0 8.0 0.00 0.00 0.00 35 1016.0
20221001175005 82 246 0.0 8.0 0.00 0.00 0.00 36 1016.0
20221001174504 81 115 4.0 10.0 0.00 0.00 0.00 36 1016.2
20221001174004 81 124 2.0 9.0 0.00 0.00 0.00 35 1016.2
20221001173504 82 49 4.0 9.0 0.00 0.00 0.00 35 1016.3
20221001173003 81 260 1.0 8.0 0.00 0.00 0.00 36 1016.3
20221001172501 81 124 3.0 8.0 0.00 0.00 0.00 37 1016.4
20221001172100 81 116 4.0 8.0 0.00 0.00 0.00 37 1016.4
20221001171604 80 252 0.0 4.0 0.00 0.00 0.00 37 1016.5
20221001171059 80 27 2.0 6.0 0.00 0.00 0.00 37 1016.5
20221001170558 80 231 1.0 8.0 0.00 0.00 0.00 38 1016.5
20221001170058 80 130 3.0 8.0 0.00 0.00 0.00 38 1016.6
20221001165557 79 134 2.0 6.0 0.00 0.00 0.00 39 1016.7
20221001165056 79 295 2.0 8.0 0.00 0.00 0.00 38 1016.7
20221001164556 79 113 4.0 8.0 0.00 0.00 0.00 39 1016.7
20221001164055 78 6 2.0 6.0 0.00 0.00 0.00 40 1016.7
20221001163554 78 341 1.0 6.0 0.00 0.00 0.00 41 1016.8
20221001163055 78 58 3.0 6.0 0.00 0.00 0.00 40 1016.8
20221001162553 78 68 2.0 7.0 0.00 0.00 0.00 40 1016.9
20221001162053 78 56 4.0 9.0 0.00 0.00 0.00 42 1016.9
20221001161553 78 115 3.0 9.0 0.00 0.00 0.00 43 1016.9
20221001161052 77 221 1.0 7.0 0.00 0.00 0.00 43 1016.9
20221001160551 77 50 3.0 7.0 0.00 0.00 0.00 42 1016.9
20221001160051 77 43 0.0 7.0 0.00 0.00 0.00 42 1016.9
20221001155550 77 94 4.0 7.0 0.00 0.00 0.00 47 1017.0
20221001155048 77 52 2.0 6.0 0.00 0.00 0.00 51 1017.0
20221001154553 76 105 1.0 7.0 0.00 0.00 0.00 53 1017.1
20221001154046 76 146 3.0 7.0 0.00 0.00 0.00 52 1017.1
20221001153545 75 70 2.0 6.0 0.00 0.00 0.00 55 1017.1
20221001153050 75 46 3.0 6.0 0.00 0.00 0.00 55 1017.1
20221001152542 74 96 3.0 6.0 0.00 0.00 0.00 56 1017.1
20221001152041 73 42 3.0 6.0 0.00 0.00 0.00 57 1017.1
20221001151549 72 46 2.0 6.0 0.00 0.00 0.00 59 1017.1
20221001151041 72 32 4.0 6.0 0.00 0.00 0.00 58 1017.1
20221001150541 72 86 2.0 6.0 0.00 0.00 0.00 59 1017.1
20221001150040 71 37 2.0 6.0 0.00 0.00 0.00 60 1017.1
20221001145535 70 18 2.0 5.0 0.00 0.00 0.00 61 1017.1
20221001145033 70 42 3.0 5.0 0.00 0.00 0.00 62 1017.0
20221001144545 69 51 2.0 6.0 0.00 0.00 0.00 63 1016.9
20221001144032 68 29 3.0 6.0 0.00 0.00 0.00 64 1016.9
20221001143530 68 47 3.0 6.0 0.00 0.00 0.00 64 1016.9
20221001143029 68 65 3.0 6.0 0.00 0.00 0.00 65 1016.9
20221001142528 67 51 3.0 6.0 0.00 0.00 0.00 66 1016.9
20221001142031 66 44 3.0 6.0 0.00 0.00 0.00 66 1016.9
20221001141539 66 65 2.0 6.0 0.00 0.00 0.00 67 1016.9
20221001141026 65 34 4.0 6.0 0.00 0.00 0.00 67 1016.8
20221001140526 64 41 3.0 5.0 0.00 0.00 0.00 68 1016.8
20221001140026 63 60 1.0 4.0 0.00 0.00 0.00 69 1016.8
20221001135525 63 73 2.0 4.0 0.00 0.00 0.00 70 1016.8
20221001135025 62 39 2.0 6.0 0.00 0.00 0.00 70 1016.8
20221001134529 61 53 3.0 6.0 0.00 0.00 0.00 70 1016.7
20221001134024 61 65 2.0 4.0 0.00 0.00 0.00 71 1016.6
20221001133523 60 44 2.0 4.0 0.00 0.00 0.00 72 1016.6
20221001133023 59 39 2.0 4.0 0.00 0.00 0.00 73 1016.6
20221001132521 58 51 2.0 4.0 0.00 0.00 0.00 74 1016.5
20221001132020 58 49 2.0 4.0 0.00 0.00 0.00 74 1016.5
20221001131524 57 44 2.0 4.0 0.00 0.00 0.00 75 1016.4
20221001131019 57 44 1.0 3.0 0.00 0.00 0.00 76 1016.3
20221001130519 56 43 1.0 3.0 0.00 0.00 0.00 77 1016.3
20221001130018 56 45 1.0 3.0 0.00 0.00 0.00 78 1016.2
20221001125517 55 50 1.0 3.0 0.00 0.00 0.00 79 1016.2
20221001125017 55 66 1.0 2.0 0.00 0.00 0.00 80 1016.1
20221001124519 54 60 0.0 2.0 0.00 0.00 0.00 80 1016.1
20221001124016 54 60 0.0 2.0 0.00 0.00 0.00 80 1016.0
20221001123515 54 60 1.0 2.0 0.00 0.00 0.00 80 1015.9
20221001123017 54 63 1.0 2.0 0.00 0.00 0.00 80 1015.8
20221001122513 54 63 1.0 2.0 0.00 0.00 0.00 81 1015.7
20221001122013 54 51 0.0 2.0 0.00 0.00 0.00 80 1015.6
20221001121517 54 76 0.0 1.0 0.00 0.00 0.00 81 1015.6
20221001121013 54 76 0.0 1.0 0.00 0.00 0.00 80 1015.6
20221001120513 54 76 0.0 2.0 0.00 0.00 0.00 80 1015.5
20221001120012 54 76 0.0 2.0 0.00 0.00 0.00 81 1015.6
20221001115511 54 75 0.0 1.0 0.00 0.00 0.00 81 1015.5
20221001115012 54 76 0.0 1.0 0.00 0.00 0.00 80 1015.5
20221001114510 54 76 0.0 1.0 0.00 0.00 0.00 80 1015.5
20221001114010 54 76 0.0 1.0 0.00 0.00 0.00 80 1015.5
20221001113510 54 76 0.0 1.0 0.00 0.00 0.00 80 1015.4
20221001113009 54 75 0.0 1.0 0.00 0.00 0.00 80 1015.3
20221001112509 54 76 0.0 2.0 0.00 0.00 0.00 80 1015.3
20221001112008 54 76 0.0 2.0 0.00 0.00 0.00 80 1015.3
20221001111507 54 76 0.0 1.0 0.00 0.00 0.00 81 1015.2
20221001111008 54 76 0.0 2.0 0.00 0.00 0.00 81 1015.1
20221001110505 54 76 0.0 1.0 0.00 0.00 0.00 82 1015.1
20221001110012 54 76 0.0 1.0 0.00 0.00 0.00 81 1015.0
20221001105505 54 76 0.0 1.0 0.00 0.00 0.00 81 1015.0
20221001105004 54 76 0.0 1.0 0.00 0.00 0.00 81 1014.9
20221001104503 54 76 0.0 1.0 0.00 0.00 0.00 81 1014.9
20221001104003 55 76 0.0 1.0 0.00 0.00 0.00 81 1014.8
20221001103502 55 76 0.0 1.0 0.00 0.00 0.00 81 1014.7
20221001103001 55 53 0.0 1.0 0.00 0.00 0.00 81 1014.6
20221001102600 55 53 0.0 1.0 0.00 0.00 0.00 81 1014.5
20221001102059 55 53 0.0 1.0 0.00 0.00 0.00 80 1014.5
20221001101629 55 53 0.0 1.0 0.00 0.00 0.00 82 1014.5
20221001101059 55 53 0.0 1.0 0.00 0.00 0.00 82 1014.5
20221001100600 54 53 0.0 1.0 0.00 0.00 0.00 84 1014.5
20221001100059 54 53 0.0 0.0 0.00 0.00 0.00 84 1014.4
20221001095557 54 53 0.0 0.0 0.00 0.00 0.00 84 1014.3
20221001095057 54 53 0.0 0.0 0.00 0.00 0.00 84 1014.2
20221001094556 54 53 0.0 0.0 0.00 0.00 0.00 84 1014.3
20221001094056 54 53 0.0 0.0 0.00 0.00 0.00 84 1014.2
20221001093557 54 53 0.0 0.0 0.00 0.00 0.00 84 1014.2
20221001093054 54 53 0.0 0.0 0.00 0.00 0.00 84 1014.2
20221001092553 54 53 0.0 0.0 0.00 0.00 0.00 83 1014.1
20221001092052 55 53 0.0 0.0 0.00 0.00 0.00 83 1014.1
20221001091552 55 53 0.0 0.0 0.00 0.00 0.00 83 1014.1
20221001091051 55 53 0.0 0.0 0.00 0.00 0.00 82 1014.1
20221001090550 55 53 0.0 0.0 0.00 0.00 0.00 82 1014.1
20221001044502 68 53 1.0 3.0 0.00 0.00 0.00 54 1013.5
20221001044003 68 68 1.0 3.0 0.00 0.00 0.00 54 1013.5
20221001043502 68 74 0.0 2.0 0.00 0.00 0.00 54 1013.4
20221001043001 68 87 0.0 3.0 0.00 0.00 0.00 54 1013.4
20221001042503 67 76 1.0 3.0 0.00 0.00 0.00 55 1013.4
20221001042101 67 26 1.0 3.0 0.00 0.00 0.00 55 1013.4
20221001041607 67 11 0.0 2.0 0.00 0.00 0.00 55 1013.4
20221001041100 68 11 0.0 2.0 0.00 0.00 0.00 54 1013.3
20221001040600 68 77 0.0 2.0 0.00 0.00 0.00 53 1013.3
20221001040109 69 76 0.0 2.0 0.00 0.00 0.00 52 1013.3
20221001035600 69 75 0.0 3.0 0.00 0.00 0.00 52 1013.2
20221001035100 69 72 1.0 3.0 0.00 0.00 0.00 52 1013.1
20221001034600 69 75 1.0 4.0 0.00 0.00 0.00 52 1013.1
20221001034100 68 68 1.0 5.0 0.00 0.00 0.00 53 1013.1
20221001033559 67 53 2.0 5.0 0.00 0.00 0.00 55 1013.2
20221001033100 67 58 1.0 1.0 0.00 0.00 0.00 55 1013.2
20221001032559 67 58 0.0 1.0 0.00 0.00 0.00 54 1013.1
20221001032058 68 58 0.0 1.0 0.00 0.00 0.00 52 1013.1
20221001031601 68 58 0.0 1.0 0.00 0.00 0.00 52 1013.1
20221001031058 69 58 0.0 1.0 0.00 0.00 0.00 51 1013.0
20221001030558 69 58 0.0 1.0 0.00 0.00 0.00 51 1012.9
20221001030058 69 58 0.0 2.0 0.00 0.00 0.00 50 1012.9
20221001025558 70 58 0.0 2.0 0.00 0.00 0.00 50 1012.8
20221001025100 70 58 1.0 2.0 0.00 0.00 0.00 51 1012.8
20221001024558 70 68 0.0 1.0 0.00 0.00 0.00 51 1012.7
20221001024100 70 67 0.0 1.0 0.00 0.00 0.00 50 1012.7
20221001023557 70 68 0.0 1.0 0.00 0.00 0.00 50 1012.8
20221001023058 70 68 0.0 1.0 0.00 0.00 0.00 51 1012.8
20221001022557 69 68 0.0 1.0 0.00 0.00 0.00 51 1012.8
20221001022057 69 68 0.0 1.0 0.00 0.00 0.00 52 1012.7
20221001021622 69 68 0.0 1.0 0.00 0.00 0.00 51 1012.7
20221001021059 69 67 0.0 1.0 0.00 0.00 0.00 51 1012.6
20221001020556 70 67 0.0 1.0 0.00 0.00 0.00 50 1012.6
20221001020056 70 68 0.0 0.0 0.00 0.00 0.00 49 1012.5
20221001015555 71 67 0.0 0.0 0.00 0.00 0.00 48 1012.4
20221001015058 71 68 0.0 1.0 0.00 0.00 0.00 48 1012.3
20221001014557 72 67 0.0 1.0 0.00 0.00 0.00 47 1012.3
20221001014055 72 67 0.0 1.0 0.00 0.00 0.00 47 1012.2
20221001013559 73 68 0.0 1.0 0.00 0.00 0.00 46 1012.1
20221001013056 74 68 0.0 1.0 0.00 0.00 0.00 45 1012.1
20221001012558 74 67 0.0 1.0 0.00 0.00 0.00 44 1012.1
20221001012054 75 67 0.0 1.0 0.00 0.00 0.00 43 1012.0
20221001011601 75 67 1.0 1.0 0.00 0.00 0.00 43 1011.9
20221001011054 76 67 1.0 2.0 0.00 0.00 0.00 42 1011.9
20221001010553 76 68 0.0 2.0 0.00 0.00 0.00 41 1011.9
20221001010056 77 72 1.0 2.0 0.00 0.00 0.00 41 1011.8
20221001005558 77 84 1.0 2.0 0.00 0.00 0.00 40 1011.7
20221001005053 78 84 1.0 2.0 0.00 0.00 0.00 40 1011.7
20221001004554 78 84 0.0 2.0 0.00 0.00 0.00 39 1011.7
20221001004056 79 84 1.0 2.0 0.00 0.00 0.00 38 1011.7
20221001003553 80 79 1.0 3.0 0.00 0.00 0.00 37 1011.7
20221001003100 80 83 1.0 5.0 0.00 0.00 0.00 36 1011.6
20221001002553 81 52 1.0 3.0 0.00 0.00 0.00 36 1011.6
20221001002052 81 52 2.0 6.0 0.00 0.00 0.00 35 1011.6
20221001001609 82 46 2.0 6.0 0.00 0.00 0.00 34 1011.7
20221001001051 82 36 2.0 4.0 0.00 0.00 0.00 34 1011.6
20221001000552 83 41 1.0 5.0 0.00 0.00 0.00 33 1011.6
20221001000051 84 39 3.0 5.0 0.00 0.00 0.00 33 1011.6
20220930235553 84 68 2.0 6.0 0.00 0.00 0.00 32 1011.5
20220930235050 84 63 2.0 7.0 0.00 0.00 0.00 31 1011.6
20220930234556 85 40 4.0 7.0 0.00 0.00 0.00 31 1011.6
20220930234050 85 50 3.0 8.0 0.00 0.00 0.00 31 1011.5
20220930233550 85 58 2.0 6.0 0.00 0.00 0.00 31 1011.5
20220930233051 85 67 3.0 11.0 0.00 0.00 0.00 31 1011.5
20220930232550 86 72 5.0 11.0 0.00 0.00 0.00 30 1011.5
20220930232149 86 75 3.0 11.0 0.00 0.00 0.00 30 1011.5
20220930231549 86 81 5.0 11.0 0.00 0.00 0.00 30 1011.5
20220930231048 86 64 5.0 8.0 0.00 0.00 0.00 30 1011.6
20220930230548 87 36 4.0 9.0 0.00 0.00 0.00 30 1011.5
20220930230048 87 38 4.0 10.0 0.00 0.00 0.00 30 1011.5
20220930225549 87 23 5.0 9.0 0.00 0.00 0.00 29 1011.6
20220930225048 87 55 5.0 11.0 0.00 0.00 0.00 29 1011.5
20220930224549 87 25 6.0 11.0 0.00 0.00 0.00 29 1011.6
20220930224047 87 4 4.0 11.0 0.00 0.00 0.00 29 1011.6
20220930223546 87 65 5.0 11.0 0.00 0.00 0.00 29 1011.6
20220930223050 87 39 4.0 11.0 0.00 0.00 0.00 29 1011.7
20220930222545 87 27 4.0 10.0 0.00 0.00 0.00 29 1011.8
20220930222043 88 18 5.0 9.0 0.00 0.00 0.00 29 1011.9
20220930221544 88 64 4.0 9.0 0.00 0.00 0.00 29 1011.9
20220930221042 88 27 5.0 10.0 0.00 0.00 0.00 29 1011.9
20220930220543 88 82 3.0 12.0 0.00 0.00 0.00 29 1011.9
20220930220042 88 30 6.0 12.0 0.00 0.00 0.00 29 1012.0
20220930215544 88 68 3.0 10.0 0.00 0.00 0.00 29 1012.0
20220930215046 88 337 5.0 11.0 0.00 0.00 0.00 29 1012.0
20220930214542 88 22 4.0 10.0 0.00 0.00 0.00 29 1012.1
20220930214040 88 34 5.0 10.0 0.00 0.00 0.00 29 1012.1
20220930213540 88 80 3.0 9.0 0.00 0.00 0.00 29 1012.1
20220930213106 88 56 4.0 11.0 0.00 0.00 0.00 29 1012.2
20220930212539 88 51 6.0 11.0 0.00 0.00 0.00 29 1012.3